TimeCST,TemperatureF,Dew PointF,Humidity,Sea Level PressureIn,VisibilityMPH,Wind Direction,Wind SpeedMPH,Gust SpeedMPH,PrecipitationIn,Events,Conditions,WindDirDegrees,DateUTC
12:21 AM,33.8,21.2,60,29.92,10.0,WNW,20.7,31.1,N/A,,Mostly Cloudy,290,2013-02-19 06:21:00
12:51 AM,32.0,21.9,66,29.95,10.0,West,18.4,25.3,N/A,,Mostly Cloudy,280,2013-02-19 06:51:00
1:51 AM,30.9,19.0,61,29.96,10.0,West,19.6,25.3,N/A,,Partly Cloudy,280,2013-02-19 07:51:00
2:51 AM,30.0,17.1,59,29.98,10.0,West,19.6,31.1,N/A,,Partly Cloudy,280,2013-02-19 08:51:00
3:51 AM,28.9,17.1,61,29.99,10.0,West,18.4,28.8,N/A,,Partly Cloudy,280,2013-02-19 09:51:00
4:51 AM,28.9,17.1,61,30.00,10.0,West,18.4,26.5,N/A,,Partly Cloudy,280,2013-02-19 10:51:00
5:51 AM,27.0,16.0,63,30.03,10.0,WNW,16.1,24.2,N/A,,Partly Cloudy,290,2013-02-19 11:51:00
6:51 AM,26.1,14.0,60,30.06,10.0,WNW,13.8,26.5,N/A,,Partly Cloudy,300,2013-02-19 12:51:00
7:51 AM,27.0,14.0,58,30.10,10.0,WNW,19.6,29.9,N/A,,Partly Cloudy,290,2013-02-19 13:51:00
8:51 AM,28.0,14.0,56,30.12,10.0,WNW,21.9,35.7,N/A,,Partly Cloudy,290,2013-02-19 14:51:00
9:51 AM,30.0,14.0,51,30.14,10.0,WNW,20.7,28.8,N/A,,Partly Cloudy,300,2013-02-19 15:51:00
10:51 AM,30.9,14.0,50,30.17,10.0,WNW,18.4,27.6,N/A,,Partly Cloudy,300,2013-02-19 16:51:00
12:51 PM,32.0,15.1,50,30.19,10.0,WNW,17.3,28.8,N/A,,Partly Cloudy,300,2013-02-19 18:51:00
1:51 PM,32.0,12.9,45,30.20,10.0,West,21.9,27.6,N/A,,Partly Cloudy,280,2013-02-19 19:51:00
2:51 PM,33.1,14.0,46,30.21,10.0,NW,19.6,28.8,N/A,,Partly Cloudy,310,2013-02-19 20:51:00
3:51 PM,33.1,12.9,43,30.23,10.0,NW,17.3,28.8,N/A,,Partly Cloudy,310,2013-02-19 21:51:00
4:51 PM,32.0,12.9,45,30.24,10.0,WNW,13.8,-,N/A,,Partly Cloudy,300,2013-02-19 22:51:00
6:51 PM,28.0,10.9,49,30.27,10.0,WNW,15.0,-,N/A,,Clear,300,2013-02-20 00:51:00
7:51 PM,27.0,10.9,51,30.29,10.0,WNW,10.4,-,N/A,,Clear,300,2013-02-20 01:51:00
8:51 PM,27.0,10.9,51,30.31,10.0,WNW,8.1,-,N/A,,Clear,300,2013-02-20 02:51:00
9:51 PM,25.0,10.9,55,30.33,10.0,West,9.2,-,N/A,,Clear,280,2013-02-20 03:51:00
10:51 PM,25.0,10.0,53,30.33,10.0,WNW,8.1,-,N/A,,Clear,290,2013-02-20 04:51:00
11:51 PM,24.1,9.0,53,30.33,10.0,WNW,8.1,-,N/A,,Clear,290,2013-02-20 05:51:00